Regional Weather Roundup
Issued by NWS Goodland, KS

Home | Current Version | Previous Version | Text Only | Print | Product List | Glossary Off
Versions: 1 2 3 4 5 6 7 8 9 10 11 12 13 14 15 16 17 18 19 20 21 22 23 24 25 26 27 28 29 30 31 32 33 34 35 36 37 38 39 40 41 42 43 44 45 46 47 48 49 50

668
ASUS43 KGLD 150459
RWRGLD

GOODLAND FORECAST AREA HOURLY WEATHER ROUNDUP
NATIONAL WEATHER SERVICE GOODLAND KS
1000 PM MST THU DEC 14 2017

...OFFICIAL OBSERVATIONS...

CITY           SKY/WX    TMP DP  RH WIND       PRES   REMARKS
GOODLAND KS    CLEAR     23  18  81 W8        30.23S
HILL CITY KS   PTCLDY    30  24  78 NW10      30.24S
IMPERIAL NEB   CLEAR     25  19  78 W7        30.22F
MCCOOK NEB     CLEAR     24  19  81 NW10      30.22F WCI  14
AKRON CO       CLOUDY    18  14  84 SW9       30.21F
BURLINGTON CO  CLEAR     18  14  84 W8        30.24F
LIMON CO       CLOUDY    14  13  95 CALM      30.23S
$$

...UNOFFICIAL OBSERVATIONS...

CITY           SKY/WX    TMP DP  RH WIND       PRES   REMARKS
LENORA KS        N/A     30  32 100 NW5         N/A
NORTON KS      CLOUDY    30  21  69 W7        30.21
SHARON SPRINGS   N/A     21  16  81 W6          N/A
KIT CARSON CO    N/A     17  12  82 CALM        N/A
YUMA CO        FAIR      16  12  86 W7        30.22F
$$




USA.gov is the U.S. government's official web portal to all federal, state and local government web resources and services.